TimeEDT,TemperatureF,Dew PointF,Humidity,Sea Level PressureIn,VisibilityMPH,Wind Direction,Wind SpeedMPH,Gust SpeedMPH,PrecipitationIn,Events,Conditions,WindDirDegrees,DateUTC
12:14 AM,44.6,37.4,76,30.18,10.0,East,4.6,-,N/A,,Clear,90,2013-04-23 04:14:00
12:34 AM,44.6,37.4,76,30.17,10.0,East,3.5,-,N/A,,Clear,90,2013-04-23 04:34:00
12:55 AM,44.6,37.4,76,30.16,10.0,East,3.5,-,N/A,,Clear,90,2013-04-23 04:55:00
1:15 AM,44.6,39.2,81,30.16,10.0,East,3.5,-,N/A,,Clear,90,2013-04-23 05:15:00
1:35 AM,44.6,39.2,81,30.15,10.0,Calm,Calm,-,N/A,,Clear,0,2013-04-23 05:35:00
1:55 AM,44.6,39.2,81,30.15,10.0,ESE,3.5,-,N/A,,Clear,110,2013-04-23 05:55:00
2:15 AM,44.6,39.2,81,30.14,10.0,Calm,Calm,-,N/A,,Clear,0,2013-04-23 06:15:00
2:35 AM,42.8,39.2,87,30.14,10.0,Calm,Calm,-,N/A,,Clear,0,2013-04-23 06:35:00
2:55 AM,44.6,41.0,87,30.13,10.0,Calm,Calm,-,N/A,,Clear,0,2013-04-23 06:55:00
3:15 AM,42.8,39.2,87,30.12,10.0,Calm,Calm,-,N/A,,Clear,0,2013-04-23 07:15:00
3:35 AM,42.8,41.0,93,30.12,10.0,Calm,Calm,-,N/A,,Clear,0,2013-04-23 07:35:00
3:56 AM,46.4,42.8,87,30.11,10.0,SE,3.5,-,N/A,,Clear,130,2013-04-23 07:56:00
4:16 AM,44.6,39.2,81,30.11,10.0,SE,4.6,-,N/A,,Clear,140,2013-04-23 08:16:00
4:36 AM,46.4,39.2,76,30.10,10.0,SSE,4.6,-,N/A,,Clear,150,2013-04-23 08:36:00
4:56 AM,46.4,39.2,76,30.10,10.0,SSE,5.8,-,N/A,,Clear,160,2013-04-23 08:56:00
5:16 AM,48.2,37.4,66,30.10,10.0,SSE,5.8,-,N/A,,Clear,150,2013-04-23 09:16:00
5:36 AM,48.2,37.4,66,30.09,10.0,SSE,4.6,-,N/A,,Clear,150,2013-04-23 09:36:00
6:16 AM,48.2,37.4,66,30.07,10.0,SSE,6.9,-,N/A,,Clear,150,2013-04-23 10:16:00
6:31 AM,48.2,35.6,62,30.06,10.0,SE,5.8,-,N/A,,Clear,140,2013-04-23 10:31:00
6:51 AM,48.2,37.4,66,30.07,10.0,SSE,6.9,-,N/A,,Clear,160,2013-04-23 10:51:00
7:12 AM,48.2,35.6,62,30.08,10.0,SSE,8.1,-,N/A,,Clear,160,2013-04-23 11:12:00
7:32 AM,50.0,35.6,58,30.08,10.0,South,8.1,-,N/A,,Clear,170,2013-04-23 11:32:00
7:52 AM,50.0,35.6,58,30.08,10.0,SSE,9.2,-,N/A,,Clear,160,2013-04-23 11:52:00
8:12 AM,50.0,35.6,58,30.09,10.0,South,8.1,-,N/A,,Scattered Clouds,180,2013-04-23 12:12:00
8:32 AM,51.8,35.6,54,30.08,10.0,South,6.9,-,N/A,,Scattered Clouds,170,2013-04-23 12:32:00
8:52 AM,53.6,35.6,51,30.08,10.0,South,8.1,-,N/A,,Scattered Clouds,170,2013-04-23 12:52:00
9:12 AM,55.4,35.6,47,30.08,10.0,South,12.7,-,N/A,,Clear,180,2013-04-23 13:12:00
9:32 AM,55.4,37.4,51,30.07,10.0,SSE,9.2,-,N/A,,Clear,160,2013-04-23 13:32:00
9:52 AM,57.2,37.4,48,30.07,10.0,SSE,9.2,-,N/A,,Clear,150,2013-04-23 13:52:00
10:12 AM,57.2,39.2,51,30.07,10.0,South,9.2,-,N/A,,Clear,180,2013-04-23 14:12:00
10:33 AM,60.8,39.2,45,30.05,10.0,South,8.1,-,N/A,,Clear,170,2013-04-23 14:33:00
10:53 AM,62.6,39.2,42,30.04,10.0,South,9.2,-,N/A,,Clear,180,2013-04-23 14:53:00
11:13 AM,62.6,41.0,45,30.04,10.0,South,11.5,-,N/A,,Clear,180,2013-04-23 15:13:00
11:33 AM,64.4,41.0,42,30.03,10.0,SSE,10.4,-,N/A,,Clear,160,2013-04-23 15:33:00
11:53 AM,64.4,42.8,45,30.03,10.0,SSE,11.5,-,N/A,,Clear,150,2013-04-23 15:53:00
12:13 PM,66.2,42.8,43,30.02,10.0,South,11.5,16.1,N/A,,Clear,180,2013-04-23 16:13:00
12:33 PM,68.0,42.8,40,30.02,10.0,South,9.2,-,N/A,,Scattered Clouds,190,2013-04-23 16:33:00
12:53 PM,69.8,44.6,40,30.00,10.0,South,11.5,-,N/A,,Mostly Cloudy,170,2013-04-23 16:53:00
1:13 PM,69.8,42.8,38,29.99,10.0,South,13.8,19.6,N/A,,Mostly Cloudy,190,2013-04-23 17:13:00
1:34 PM,69.8,42.8,38,29.98,10.0,SSW,11.5,19.6,N/A,,Overcast,200,2013-04-23 17:34:00
1:54 PM,69.8,42.8,38,29.96,10.0,South,15.0,20.7,N/A,,Scattered Clouds,180,2013-04-23 17:54:00
2:14 PM,71.6,42.8,35,29.95,10.0,South,10.4,20.7,N/A,,Scattered Clouds,190,2013-04-23 18:14:00
2:34 PM,71.6,44.6,38,29.94,10.0,South,13.8,21.9,N/A,,Scattered Clouds,190,2013-04-23 18:34:00
2:54 PM,71.6,42.8,35,29.93,10.0,SSW,13.8,19.6,N/A,,Scattered Clouds,200,2013-04-23 18:54:00
3:14 PM,71.6,42.8,35,29.92,10.0,SSW,17.3,-,N/A,,Scattered Clouds,200,2013-04-23 19:14:00
3:34 PM,71.6,42.8,35,29.91,10.0,SSW,18.4,25.3,N/A,,Scattered Clouds,210,2013-04-23 19:34:00
3:54 PM,71.6,42.8,35,29.91,10.0,SSW,17.3,27.6,N/A,,Scattered Clouds,200,2013-04-23 19:54:00
4:14 PM,71.6,42.8,35,29.90,10.0,SSW,13.8,25.3,N/A,,Scattered Clouds,200,2013-04-23 20:14:00
4:35 PM,71.6,42.8,35,29.89,10.0,SSW,20.7,27.6,N/A,,Scattered Clouds,200,2013-04-23 20:35:00
4:55 PM,71.6,42.8,35,29.88,10.0,SSW,15.0,23.0,N/A,,Scattered Clouds,200,2013-04-23 20:55:00
5:15 PM,69.8,44.6,40,29.88,10.0,SSW,18.4,27.6,N/A,,Scattered Clouds,200,2013-04-23 21:15:00
5:35 PM,69.8,46.4,43,29.87,10.0,SSW,13.8,24.2,N/A,,Clear,200,2013-04-23 21:35:00
5:55 PM,69.8,46.4,43,29.87,10.0,SSW,10.4,13.8,N/A,,Mostly Cloudy,210,2013-04-23 21:55:00
6:15 PM,66.2,48.2,52,29.87,10.0,SSW,13.8,21.9,N/A,Rain,Rain,210,2013-04-23 22:15:00
6:35 PM,60.8,53.6,77,29.89,7.0,SW,11.5,-,N/A,Rain,Rain,220,2013-04-23 22:35:00
6:55 PM,60.8,55.4,82,29.89,7.0,SSW,8.1,-,N/A,Rain,Rain,210,2013-04-23 22:55:00
7:15 PM,60.8,55.4,82,29.90,5.0,WSW,13.8,18.4,N/A,Rain,Rain,250,2013-04-23 23:15:00
7:36 PM,59.0,55.4,88,29.90,7.0,WSW,8.1,-,N/A,Rain,Light Rain,240,2013-04-23 23:36:00
7:56 PM,59.0,55.4,88,29.88,10.0,SW,4.6,-,N/A,Rain,Light Rain,220,2013-04-23 23:56:00
8:16 PM,57.2,55.4,94,29.88,10.0,SSW,3.5,-,N/A,,Light Drizzle,200,2013-04-24 00:16:00
8:36 PM,57.2,55.4,94,29.88,7.0,South,3.5,-,N/A,,Drizzle,180,2013-04-24 00:36:00
8:56 PM,57.2,55.4,94,29.88,7.0,South,4.6,-,N/A,Rain,Light Rain,170,2013-04-24 00:56:00
9:16 PM,57.2,55.4,94,29.88,5.0,Calm,Calm,-,N/A,Rain,Light Rain,0,2013-04-24 01:16:00
9:31 PM,57.2,55.4,94,29.87,7.0,SSE,3.5,-,N/A,Rain,Light Rain,150,2013-04-24 01:31:00
9:51 PM,57.2,55.4,94,29.86,7.0,Calm,Calm,-,N/A,,Overcast,0,2013-04-24 01:51:00
10:12 PM,57.2,55.4,94,29.84,5.0,Calm,Calm,-,N/A,Rain,Light Rain,0,2013-04-24 02:12:00
10:32 PM,57.2,55.4,94,29.85,4.0,SSE,3.5,-,N/A,Rain,Rain,150,2013-04-24 02:32:00
10:52 PM,57.2,55.4,94,29.84,4.0,Calm,Calm,-,N/A,Rain,Rain,0,2013-04-24 02:52:00
11:12 PM,57.2,55.4,94,29.82,4.0,SE,4.6,-,N/A,Rain,Rain,130,2013-04-24 03:12:00
11:32 PM,57.2,55.4,94,29.81,3.0,SE,4.6,-,N/A,Rain,Light Rain,130,2013-04-24 03:32:00
11:52 PM,57.2,55.4,94,29.80,2.5,SE,6.9,-,N/A,Rain,Light Rain,140,2013-04-24 03:52:00